TimeEDT,TemperatureF,Dew PointF,Humidity,Sea Level PressureIn,VisibilityMPH,Wind Direction,Wind SpeedMPH,Gust SpeedMPH,PrecipitationIn,Events,Conditions,WindDirDegrees,DateUTC
12:53 AM,73.0,70.0,90,29.98,10.0,WSW,3.5,-,N/A,,Partly Cloudy,240,2012-10-07 04:53:00
1:53 AM,73.0,70.0,90,29.97,10.0,SW,4.6,-,N/A,,Clear,230,2012-10-07 05:53:00
2:53 AM,73.0,70.0,90,29.96,10.0,Calm,Calm,-,N/A,,Clear,0,2012-10-07 06:53:00
3:53 AM,73.9,70.0,87,29.95,10.0,Calm,Calm,-,N/A,,Clear,0,2012-10-07 07:53:00
4:53 AM,73.9,71.1,91,29.95,10.0,Calm,Calm,-,N/A,,Clear,0,2012-10-07 08:53:00
5:53 AM,73.0,70.0,90,29.96,10.0,North,4.6,-,N/A,,Clear,360,2012-10-07 09:53:00
6:53 AM,73.0,70.0,90,29.97,10.0,Calm,Calm,-,N/A,,Clear,0,2012-10-07 10:53:00
7:53 AM,73.9,71.1,91,29.98,10.0,Calm,Calm,-,N/A,,Clear,0,2012-10-07 11:53:00
8:53 AM,75.9,72.0,87,29.99,10.0,NE,3.5,-,N/A,,Clear,50,2012-10-07 12:53:00
9:53 AM,80.1,72.0,76,30.01,10.0,Calm,Calm,-,N/A,,Clear,0,2012-10-07 13:53:00
10:53 AM,82.0,72.0,71,30.00,10.0,Variable,3.5,-,N/A,,Clear,0,2012-10-07 14:53:00
11:53 AM,82.9,72.0,69,30.01,10.0,Variable,3.5,-,N/A,,Clear,0,2012-10-07 15:53:00
12:53 PM,84.9,72.0,65,30.00,10.0,East,6.9,-,N/A,,Clear,80,2012-10-07 16:53:00
1:53 PM,86.0,70.0,59,29.98,10.0,Variable,4.6,-,N/A,,Partly Cloudy,0,2012-10-07 17:53:00
2:53 PM,86.0,68.0,55,29.96,10.0,East,8.1,-,N/A,,Clear,90,2012-10-07 18:53:00
3:53 PM,89.1,71.1,55,29.94,10.0,East,8.1,-,N/A,,Scattered Clouds,90,2012-10-07 19:53:00
4:53 PM,84.0,69.1,61,29.94,10.0,ESE,13.8,-,N/A,,Scattered Clouds,120,2012-10-07 20:53:00
5:53 PM,82.9,71.1,67,29.95,10.0,East,8.1,-,N/A,,Clear,100,2012-10-07 21:53:00
6:53 PM,82.0,72.0,71,29.97,10.0,East,8.1,-,N/A,,Clear,90,2012-10-07 22:53:00
7:53 PM,80.1,72.0,76,29.98,10.0,East,4.6,-,N/A,,Clear,100,2012-10-07 23:53:00
8:53 PM,79.0,72.0,79,30.01,10.0,ESE,4.6,-,N/A,,Clear,110,2012-10-08 00:53:00
9:53 PM,79.0,73.0,82,30.01,10.0,SSE,5.8,-,N/A,,Clear,150,2012-10-08 01:53:00
10:53 PM,78.1,73.0,84,30.02,10.0,South,3.5,-,N/A,,Clear,190,2012-10-08 02:53:00
11:53 PM,78.1,73.0,84,30.01,10.0,WSW,3.5,-,N/A,,Clear,240,2012-10-08 03:53:00